This is the latest recevied weather packets stored in our database for station/object HB9TJM-8. If no packets are shown the sender has not sent any weather packets the latest 10 day(s).
| Time | Temp. | Humidity | Pressure | Rain* | Wind** | Luminosity | Snow |
|---|---|---|---|---|---|---|---|
| 1777574471 | 12.22° C | 46% | 1021.5 hPa | 0 mm | - | 4 W/m² | - |
| 1777572932 | 12.78° C | 46% | 1021.5 hPa | 0 mm | - | 17 W/m² | - |
| 1777572316 | 12.78° C | 46% | 1021.1 hPa | 0 mm | - | 22 W/m² | - |
| 1777572009 | 13.33° C | 46% | 1020.9 hPa | 0 mm | - | 24 W/m² | - |
| 1777571701 | 12.78° C | 46% | 1021 hPa | 0 mm | - | 27 W/m² | - |
| 1777571394 | 13.33° C | 47% | 1020.9 hPa | 0 mm | - | 29 W/m² | - |
| 1777571086 | 13.33° C | 46% | 1021.2 hPa | 0 mm | - | 31 W/m² | - |
| 1777570778 | 13.33° C | 47% | 1020.9 hPa | 0 mm | - | 34 W/m² | - |
| 1777570471 | 13.89° C | 44% | 1020.6 hPa | 0 mm | - | 37 W/m² | - |
| 1777570163 | 13.89° C | 45% | 1021.2 hPa | 0 mm | - | 40 W/m² | - |
| 1777569855 | 13.89° C | 47% | 1020.8 hPa | 0 mm | - | 42 W/m² | - |
| 1777569548 | 13.89° C | 46% | 1020.8 hPa | 0 mm | - | 46 W/m² | - |
| 1777569240 | 13.89° C | 46% | 1020.8 hPa | 0 mm | - | 45 W/m² | - |
| 1777568933 | 13.89° C | 45% | 1020.8 hPa | 0 mm | - | 45 W/m² | - |
| 1777568626 | 14.44° C | 45% | 1020.6 hPa | 0 mm | - | 45 W/m² | - |
| 1777568319 | 13.89° C | 45% | 1020.6 hPa | 0 mm | - | 46 W/m² | - |
| 1777568011 | 14.44° C | 45% | 1020.6 hPa | 0 mm | - | 47 W/m² | - |
| 1777567396 | 14.44° C | 48% | 1020.4 hPa | 0 mm | - | 49 W/m² | - |
| 1777567088 | 14.44° C | 48% | 1020 hPa | 0 mm | - | 50 W/m² | - |
| 1777566780 | 14.44° C | 50% | 1020.8 hPa | 0 mm | - | 51 W/m² | - |
| 1777566164 | 14.44° C | 50% | 1020.5 hPa | 0 mm | - | 54 W/m² | - |
| 1777565856 | 14.44° C | 49% | 1020.9 hPa | 0 mm | - | 77 W/m² | - |
| 1777565241 | 14.44° C | 48% | 1020.5 hPa | 0 mm | - | 111 W/m² | - |
| 1777564934 | 14.44° C | 49% | 1020.7 hPa | 0 mm | - | 56 W/m² | - |
| 1777564626 | 14.44° C | 50% | 1020.6 hPa | 0 mm | - | 59 W/m² | - |
* Rain latest hour (hover to see other rain measurements)
** Current wind speed in m/s (hover to see current wind gust speed)